| time (UTC) | temp F | wind direction | speed MPH | gust MPH | rain 1hr in | rain 24hr in | rain mn in | humidity % | barometer mb |
| 20260505070052 | 51 | 290 | 0.0 | 7.0 | 0.00 | 0.00 | 0.00 | 47 | 1002.8 |
| 20260505064602 | 52 | 259 | 1.0 | 5.0 | 0.00 | 0.00 | 0.00 | 48 | 1002.7 |
| 20260505063053 | 53 | 297 | 1.0 | 5.0 | 0.00 | 0.00 | 0.00 | 48 | 1002.1 |
| 20260505061552 | 54 | 274 | 2.0 | 8.0 | 0.00 | 0.00 | 0.00 | 46 | 1002.0 |
| 20260505060055 | 55 | 215 | 1.0 | 5.0 | 0.00 | 0.00 | 0.00 | 45 | 1001.9 |
| 20260505054618 | 55 | 338 | 1.0 | 4.0 | 0.00 | 0.00 | 0.00 | 43 | 1001.9 |
| 20260505053056 | 56 | 281 | 3.0 | 9.0 | 0.00 | 0.00 | 0.00 | 42 | 1001.6 |
| 20260505051552 | 57 | 273 | 3.0 | 7.0 | 0.00 | 0.00 | 0.00 | 40 | 1001.3 |
| 20260505041605 | 60 | 293 | 4.0 | 9.0 | 0.00 | 0.00 | 0.00 | 35 | 1000.2 |
| 20260505040058 | 61 | 278 | 3.0 | 6.0 | 0.00 | 0.00 | 0.00 | 38 | 1000.0 |
| 20260505034554 | 61 | 273 | 2.0 | 6.0 | 0.00 | 0.00 | 0.00 | 39 | 999.9 |
| 20260505033056 | 62 | 287 | 1.0 | 5.0 | 0.00 | 0.00 | 0.00 | 38 | 1000.1 |
| 20260505031554 | 62 | 268 | 2.0 | 4.0 | 0.00 | 0.00 | 0.00 | 37 | 1000.0 |
| 20260505030107 | 63 | 281 | 2.0 | 5.0 | 0.00 | 0.00 | 0.00 | 36 | 999.6 |
| 20260505024603 | 63 | 308 | 4.0 | 10.0 | 0.00 | 0.00 | 0.00 | 34 | 999.4 |
| 20260505023059 | 64 | 266 | 4.0 | 9.0 | 0.00 | 0.00 | 0.00 | 34 | 999.1 |
| 20260505021601 | 65 | 231 | 5.0 | 13.0 | 0.00 | 0.00 | 0.00 | 35 | 998.8 |
| 20260505020105 | 67 | 290 | 5.0 | 10.0 | 0.00 | 0.00 | 0.00 | 35 | 998.3 |
| 20260505014556 | 68 | 285 | 4.0 | 8.0 | 0.00 | 0.00 | 0.00 | 35 | 997.9 |
| 20260505013059 | 68 | 266 | 4.0 | 7.0 | 0.00 | 0.00 | 0.00 | 39 | 997.4 |
| 20260505011552 | 69 | 278 | 2.0 | 8.0 | 0.00 | 0.00 | 0.00 | 38 | 996.5 |
| 20260505010111 | 70 | 255 | 3.0 | 8.0 | 0.00 | 0.00 | 0.00 | 38 | 996.0 |
| 20260505004555 | 72 | 229 | 3.0 | 12.0 | 0.00 | 0.00 | 0.00 | 37 | 995.8 |
| 20260505003124 | 74 | 276 | 2.0 | 4.0 | 0.00 | 0.00 | 0.00 | 35 | 995.3 |
| 20260505001558 | 74 | 248 | 3.0 | 6.0 | 0.00 | 0.00 | 0.00 | 34 | 994.7 |
| 20260505000059 | 75 | 225 | 4.0 | 7.0 | 0.00 | 0.00 | 0.00 | 33 | 994.8 |
| 20260504234555 | 75 | 258 | 3.0 | 8.0 | 0.00 | 0.00 | 0.00 | 32 | 994.8 |
| 20260504233057 | 75 | 280 | 5.0 | 10.0 | 0.00 | 0.00 | 0.00 | 31 | 995.0 |
| 20260504231552 | 75 | 303 | 5.0 | 12.0 | 0.00 | 0.00 | 0.00 | 31 | 995.4 |
| 20260504230113 | 75 | 269 | 10.0 | 22.0 | 0.00 | 0.00 | 0.00 | 29 | 995.5 |
| 20260504224612 | 76 | 291 | 6.0 | 14.0 | 0.00 | 0.00 | 0.00 | 30 | 995.4 |
| 20260504223053 | 79 | 271 | 9.0 | 18.0 | 0.00 | 0.00 | 0.00 | 29 | 995.4 |
| 20260504221553 | 79 | 245 | 10.0 | 19.0 | 0.00 | 0.00 | 0.00 | 28 | 995.2 |
| 20260504220057 | 79 | 240 | 10.0 | 17.0 | 0.00 | 0.00 | 0.00 | 28 | 995.5 |
| 20260504214551 | 78 | 231 | 8.0 | 21.0 | 0.00 | 0.00 | 0.00 | 28 | 995.7 |
| 20260504213056 | 78 | 221 | 9.0 | 17.0 | 0.00 | 0.00 | 0.00 | 27 | 995.7 |
| 20260504211558 | 79 | 295 | 7.0 | 21.0 | 0.00 | 0.00 | 0.00 | 27 | 995.8 |
| 20260504210101 | 79 | 263 | 11.0 | 20.0 | 0.00 | 0.00 | 0.00 | 26 | 995.9 |
| 20260504204556 | 79 | 297 | 11.0 | 22.0 | 0.00 | 0.00 | 0.00 | 27 | 996.1 |
| 20260504203057 | 78 | 211 | 9.0 | 23.0 | 0.00 | 0.00 | 0.00 | 27 | 996.2 |
| 20260504201604 | 78 | 210 | 10.0 | 19.0 | 0.00 | 0.00 | 0.00 | 27 | 996.4 |
| 20260504194555 | 78 | 260 | 9.0 | 19.0 | 0.00 | 0.00 | 0.00 | 26 | 996.8 |
| 20260504193052 | 78 | 243 | 10.0 | 19.0 | 0.00 | 0.00 | 0.00 | 25 | 996.7 |
| 20260504191606 | 78 | 193 | 11.0 | 20.0 | 0.00 | 0.00 | 0.00 | 26 | 996.9 |
| 20260504190052 | 77 | 210 | 10.0 | 18.0 | 0.00 | 0.00 | 0.00 | 26 | 997.0 |
| 20260504184551 | 77 | 245 | 9.0 | 24.0 | 0.00 | 0.00 | 0.00 | 27 | 996.9 |
| 20260504183053 | 76 | 245 | 13.0 | 20.0 | 0.00 | 0.00 | 0.00 | 27 | 997.1 |
| 20260504181559 | 76 | 260 | 12.0 | 23.0 | 0.00 | 0.00 | 0.00 | 26 | 997.4 |
| 20260504180052 | 75 | 162 | 9.0 | 22.0 | 0.00 | 0.00 | 0.00 | 27 | 997.3 |
| 20260504174558 | 75 | 249 | 8.0 | 22.0 | 0.00 | 0.00 | 0.00 | 27 | 997.6 |
| 20260504173058 | 75 | 266 | 10.0 | 17.0 | 0.00 | 0.00 | 0.00 | 27 | 997.7 |
| 20260504171555 | 74 | 245 | 12.0 | 22.0 | 0.00 | 0.00 | 0.00 | 28 | 998.2 |
| 20260504120124 | 55 | 231 | 0.0 | 4.0 | 0.00 | 0.00 | 0.00 | 63 | 1001.4 |
| 20260504081557 | 49 | 0 | 0.0 | 1.0 | 0.00 | 0.00 | 0.00 | 76 | 1002.5 |